Location: Gebenbach
(49.5378°N, 11.8735°E)
Time: 02:36:51
(UTC+00:00)

Cosmos 2263 Rocket - Pass Details

Date: 29 October 2020
Orbit: 822 x 850 km, 71.0° (Epoch: 24 November)

Event Time Altitude Azimuth Distance (km) Brightness Sun altitude
Rises 18:37:04 0° 331° (NNW) 3,422 5.9 -26.7°
Reaches altitude 10° 18:39:31 10° 332° (NNW) 2,485 5.1 -27.1°
Enters shadow 18:45:05 84° 8° (N) 862 2.1 -28.0°
